User: anonymous   Login
Location: Newark
(46.2358°N, 112.1211°W)
Time: 00:43:09
(UTC+00:00)
Language:

Gurwin Techsat 1B - Orbit

View from above orbital plane
View from above orbital plane
View from above satellite
View from above satellite

Ground track
Ground track

The orbit data is extracted from the following two-line orbital elements,

1 25397U 98043D   20192.42677926 -.00000015 +00000-0 +12919-4 0  9990
2 25397 098.7291 133.7509 0001678 036.6711 323.4582 14.23687231142829
Epoch (UTC): 10 July 2020 10:14:33
Eccentricity: 0.0001678
inclination: 98.7291°
perigee height: 812 km
apogee height: 814 km
right ascension of ascending node: 133.7509°
argument of perigee: 36.6711°
revolutions per day: 14.23687231
mean anomaly at epoch: 323.4582°
orbit number at epoch: 14282

The dashed part of the orbit path shows where the satellite is in the earth's shadow,  

DLR